Los Angeles, CA

2:11 AM PDT on August 29, 2016 (GMT -0700)
Los Angeles Downtown

Weather History for KCQT - January, 2014

Change the Weather History Date:

Thursday, January 23, 2014

  Actual Average Record
Temperature  
Mean Temperature 62 °F 58 °F  
Max Temperature 72 °F 68 °F 84 °F (1968)
Min Temperature 51 °F 48 °F 33 °F (1937)
Degree Days  
Heating Degree Days 3 7  
Month to date heating degree days 64 167  
Since 1 July heating degree days 344 532  
Cooling Degree Days 0 0  
Month to date cooling degree days 15 0  
Year to date cooling degree days 15 0  
Growing Degree Days 12 (Base 50)    
Moisture  
Dew Point 48 °F    
Average Humidity 64    
Maximum Humidity 96    
Minimum Humidity 31    
Precipitation  
Precipitation 0.00 in 0.10 in 1.05 in (1995)
Month to date precipitation 0.00 2.33  
Year to date precipitation 0.00 2.33  
Since 1 July precipitation 0.97  
Sea Level Pressure  
Sea Level Pressure 29.95 in    
Wind  
Wind Speed 0 mph (ENE)    
Max Wind Speed 6 mph    
Max Gust Speed 8 mph    
Visibility 4 miles    
Events      
T = Trace of Precipitation, MM = Missing Value Source: NWS Daily Summary

Daily Weather History Graph

Daily Weather History Graph

Search for Another Location

Airport or City:

Trip Planner

Search our weather history database for the weather conditions in past years. The results will help you decide how hot, cold, wet, or windy it might be!

Date:

Astronomy

Jan. 23, 2014 Rise Set
Actual Time 6:55 AM PST 5:14 PM PST
Civil Twilight 6:28 AM PST 5:41 PM PST
Nautical Twilight 5:58 AM PST 6:12 PM PST
Astronomical Twilight 5:28 AM PST 6:41 PM PST
Moon No Moon Rise 10:54 AM PST (1/23)
Length of Visible Light 11h 12m
Length of Day
10h 19m
Waning Gibbous, 54% of the Moon is Illuminated
Jan 23
Waning Gibbous
Jan 23
Last Quarter
Jan 30
New
Feb 6
First Quarter
Feb 14
Full

Hourly Weather History & Observations

Time (PST) Temp. Dew Point Humidity Pressure Visibility Wind Dir Wind Speed Gust Speed Precip Events Conditions
12:47 AM 55.0 °F 51.1 °F 86% 29.93 in 2.5 mi Calm Calm - N/A   Overcast
1:47 AM 55.0 °F 51.1 °F 86% 29.91 in 2.5 mi Calm Calm - N/A   Overcast
1:53 AM 55.4 °F 51.8 °F 88% 29.90 in 3.0 mi Calm Calm - N/A   Overcast
2:01 AM 55.4 °F 51.8 °F 88% 29.90 in 2.5 mi Calm Calm - N/A   Overcast
2:23 AM 53.6 °F 50.0 °F 88% 29.89 in 3.0 mi NNE 3.5 mph - N/A   Mostly Cloudy
2:27 AM 53.6 °F 50.0 °F 88% 29.89 in 3.0 mi Calm Calm - N/A   Scattered Clouds
2:47 AM 52.0 °F 50.0 °F 93% 29.90 in 3.0 mi Calm Calm - N/A   Clear
3:47 AM 52.0 °F 48.9 °F 89% 29.90 in 3.0 mi Calm Calm - N/A   Clear
3:56 AM 51.8 °F 48.2 °F 88% 29.90 in 3.0 mi Calm Calm - N/A   Partly Cloudy
4:03 AM 53.6 °F 50.0 °F 88% 29.90 in 2.5 mi Calm Calm - N/A   Mostly Cloudy
4:23 AM 51.8 °F 48.2 °F 88% 29.91 in 3.0 mi Calm Calm - N/A   Scattered Clouds
4:41 AM 51.8 °F 48.2 °F 88% 29.92 in 2.5 mi Calm Calm - N/A   Clear
4:50 AM 51.8 °F 48.2 °F 88% 29.92 in 3.0 mi Calm Calm - N/A   Partly Cloudy
5:05 AM 51.8 °F 48.2 °F 88% 29.92 in 3.0 mi SE 4.6 mph - N/A   Mostly Cloudy
5:15 AM 51.8 °F 48.2 °F 88% 29.93 in 3.0 mi Calm Calm - N/A   Mostly Cloudy
5:32 AM 51.8 °F 48.2 °F 88% 29.93 in 3.0 mi Calm Calm - N/A   Scattered Clouds
5:40 AM 51.8 °F 48.2 °F 88% 29.93 in 3.0 mi Calm Calm - N/A   Mostly Cloudy
5:47 AM 51.1 °F 48.0 °F 89% 29.93 in 3.0 mi Calm Calm - N/A   Mostly Cloudy
5:56 AM 51.8 °F 48.2 °F 88% 29.94 in 2.5 mi East 3.5 mph - N/A   Mostly Cloudy
6:09 AM 51.8 °F 48.2 °F 88% 29.94 in 2.5 mi Calm Calm - N/A   Mostly Cloudy
6:40 AM 51.8 °F 48.2 °F 88% 29.95 in 3.0 mi Calm Calm - N/A   Mostly Cloudy
6:47 AM 51.1 °F 48.0 °F 89% 29.95 in 3.0 mi Variable 3.5 mph - N/A   Mostly Cloudy
6:56 AM 51.8 °F 48.2 °F 88% 29.96 in 2.5 mi Calm Calm - N/A   Mostly Cloudy
7:13 AM 51.8 °F 48.2 °F 88% 29.96 in 1.8 mi Calm Calm - N/A   Mostly Cloudy
7:36 AM 51.8 °F 48.2 °F 88% 29.97 in 1.8 mi Calm Calm - N/A   Scattered Clouds
7:47 AM 51.1 °F 48.0 °F 89% 29.97 in 1.8 mi Calm Calm - N/A   Partly Cloudy
7:54 AM 51.8 °F 48.2 °F 88% 29.97 in 2.0 mi Calm Calm - N/A   Clear
8:37 AM 53.6 °F 48.2 °F 82% 29.96 in 3.0 mi North 3.5 mph - N/A   Haze
8:47 AM 54.0 °F 46.9 °F 77% 29.96 in 4.0 mi Calm Calm - N/A   Haze
9:47 AM 59.0 °F 46.9 °F 64% 29.97 in 4.0 mi Calm Calm - N/A   Haze
10:47 AM 64.0 °F 37.0 °F 37% 29.97 in 6.0 mi Calm Calm - N/A   Haze
11:47 AM 66.9 °F 39.9 °F 37% 29.94 in 5.0 mi Calm Calm - N/A   Haze
12:47 PM 69.1 °F 39.9 °F 35% 29.92 in 4.0 mi Calm Calm - N/A   Haze
1:47 PM 71.1 °F 39.9 °F 32% 29.91 in 6.0 mi Calm Calm - N/A   Haze
2:47 PM 72.0 °F 41.0 °F 33% 29.90 in 6.0 mi Calm Calm - N/A   Haze
3:47 PM 70.0 °F 37.0 °F 30% 29.92 in 8.0 mi Calm Calm - N/A   Clear
4:47 PM 66.9 °F 39.0 °F 36% 29.93 in 9.0 mi Calm Calm - N/A   Clear
5:47 PM 63.0 °F 51.1 °F 65% 29.95 in 7.0 mi Calm Calm - N/A   Clear
6:47 PM 62.1 °F 51.1 °F 67% 29.98 in 7.0 mi Calm Calm - N/A   Clear
7:47 PM 60.1 °F 46.9 °F 62% 30.01 in 8.0 mi Calm Calm - N/A   Clear
8:47 PM 57.9 °F 50.0 °F 75% 30.05 in 9.0 mi Calm Calm - N/A   Clear
9:47 PM 57.9 °F 51.1 °F 78% 30.08 in 8.0 mi Calm Calm - N/A   Clear
10:47 PM 57.9 °F 52.0 °F 81% 30.09 in 7.0 mi Calm Calm - N/A   Clear
11:47 PM 57.0 °F 52.0 °F 83% 30.10 in 6.0 mi Calm Calm - N/A   Haze